[[{"header":{"parameterUnit":"m.s-1","parameterCategory":1,"la1":30.2991,"la2":30.254,"lo1":-89.0895,"lo2":-89.0444,"dy":0.0017,"dx":0.0017,"nx":28,"ny":28,"refTime":"2023-10-21T09:00:00:Z","depth":0,"parameterNumber":2,"parameterNumberName":"U-component_of_WINDS"},"data":[0,0,0,0,0,0,0,0,0,0,0,0,0,0,0,0,0,0,0,0,0,0,0,0,0,0,0,0,0,0,0,0,0,0,0,0,0,0,0,0,0,0,0,0,0,0,0,0,0,0,0,0,0,0,0,0,0,0,-4.1952,-4.1952,0,-4.1965,-4.1965,-4.1965,-4.1872,-4.187,-4.1867,-4.1865,-4.1877,-4.188,-4.1882,0,0,0,0,0,0,0,0,0,0,0,0,0,-4.1848,-4.185,-4.1952,-4.1952,-4.1952,-4.1965,-4.1965,-4.1965,-4.1873,-4.187,-4.1867,-4.1864,-4.1876,-4.1879,-4.1883,0,0,0,0,0,0,0,0,0,0,0,0,0,-4.188,-4.1851,-4.1952,-4.1908,-4.1904,-4.1965,-4.1965,-4.1965,-4.1874,-4.187,-4.1866,-4.1862,-4.1875,-4.1879,-4.1883,-4.1987,0,0,-4.1896,-4.1897,0,0,0,0,0,0,0,0,-4.1878,-4.1884,-4.1914,-4.1911,-4.1907,-4.1913,-4.1933,-4.1972,-4.1875,-4.1885,-4.1865,-4.186,-4.1892,-4.1895,-4.1905,-4.1987,-4.1988,-4.1896,-4.1899,-4.19,-4.1901,0,0,0,0,0,0,0,-4.1876,-4.1883,-4.1957,-4.1915,-4.191,-4.1887,-4.1888,-4.194,-4.191,-4.1884,-4.1877,-4.188,-4.1889,-4.1902,-4.1905,-4.1988,-4.1896,-4.19,-4.1902,-4.1904,-4.2157,-4.2162,0,0,0,0,0,0,-4.188,-4.1882,-4.1957,-4.1957,-4.1883,-4.1892,-4.1893,-4.1915,-4.1909,-4.1905,-4.1883,-4.1876,-4.1897,-4.19,-4.1905,-4.2028,-4.19,-4.1904,-4.1907,-4.2153,-4.2158,-4.2163,0,0,0,0,0,0,-4.1878,-4.1887,-4.1956,-4.1918,-4.1925,-4.1898,-4.1924,-4.1917,-4.193,-4.1909,-4.1903,-4.1902,-4.1894,-4.1899,-4.1968,-4.2027,-4.1906,-4.191,-4.2148,-4.2155,-4.2161,-4.2273,0,0,0,0,0,0,-4.1875,-4.1887,-4.1926,-4.1919,-4.1927,-4.2019,-4.1928,-4.192,-4.1937,-4.1927,-4.1925,-4.192,-4.1891,-4.1962,-4.1972,-4.203,-4.1913,-4.2143,-4.2151,-4.2159,-4.2264,-4.2283,-4.2298,0,0,0,0,0,-4.1872,-4.1957,-4.1929,-4.1938,-4.1975,-4.2022,-4.2027,-4.1991,-4.1942,-4.1981,-4.1969,-4.192,-4.2019,-4.197,-4.198,-4.2041,-4.2139,-4.2149,-4.2158,-4.2256,-4.2279,-4.2298,0,0,0,0,0,0,-4.197,-4.1955,-4.1924,-4.2008,-4.2018,-4.2006,-4.2055,-4.2016,-4.2039,-4.2029,-4.1984,-4.1984,-4.206,-4.2057,-4.2003,-4.2142,-4.207,-4.2082,-4.2141,-4.2163,-4.218,-4.2179,-4.1916,0,0,0,0,0,-4.2002,-4.2041,-4.2026,-4.2102,-4.2108,-4.2081,-4.21,-4.2072,-4.208,-4.2083,-4.2075,-4.2084,-4.2117,-4.2139,-4.2168,-4.2263,-4.2262,-4.231,-4.2327,-4.2341,-4.2353,-4.2405,-4.2426,-4.2195,-4.2194,-4.2194,0,0,-4.2067,-4.2064,-4.2091,-4.2122,-4.2125,-4.2168,-4.2085,-4.2132,-4.2164,-4.209,-4.2155,-4.2149,-4.2156,-4.2239,-4.2275,-4.2238,-4.2416,-4.2353,-4.2365,-4.2369,-4.2417,-4.2439,-4.2458,-4.2201,-4.22,-4.2199,0,0,-4.2209,-4.221,-4.2275,-4.228,-4.2288,-4.2269,-4.2285,-4.228,-4.2274,-4.2339,-4.2285,-4.2321,-4.2378,-4.2386,-4.2398,-4.2545,-4.2502,-4.2555,-4.2646,-4.2697,-4.2716,-4.2732,-4.2786,-4.2806,-4.2567,-4.2567,-4.2567,0,-4.2289,-4.2351,-4.2312,-4.2365,-4.2381,-4.2317,-4.2383,-4.239,-4.2406,-4.2419,-4.2378,-4.245,-4.245,-4.2535,-4.2571,-4.2582,-4.2599,-4.2556,-4.2716,-4.2732,-4.2746,-4.2798,-4.2818,-4.2573,-4.2573,-4.2572,-4.2571,0,-4.2451,-4.2495,-4.2547,-4.2566,-4.2587,-4.2646,-4.2616,-4.2642,-4.2613,-4.26,-4.2667,-4.2665,-4.2694,-4.2711,-4.2683,-4.2793,-4.2771,-4.2724,-4.2651,-4.2775,-4.2823,-4.2842,-4.2583,-4.258,-4.2579,-4.2577,0,0,-4.2654,-4.2652,-4.2672,-4.2681,-4.2685,-4.2718,-4.2775,-4.2804,-4.2828,-4.2841,-4.2889,-4.294,-4.2897,-4.291,-4.2882,-4.2927,-4.3047,-4.2874,-4.2874,-4.2908,-4.317,-4.3207,-4.323,-4.3018,-4.3021,-4.3024,-4.317,0,-4.2794,-4.2891,-4.2859,-4.2958,-4.2999,-4.294,-4.2989,-4.2997,-4.2987,-4.302,-4.3007,-4.3045,-4.2985,-4.2993,-4.3034,-4.3023,-4.3099,-4.3012,-4.3063,-4.3065,-4.3065,-4.3255,-4.3293,-4.3431,-4.3189,-4.3192,-4.3194,0,-4.297,-4.2992,-4.3096,-4.3095,-4.3111,-4.3156,-4.3182,-4.3214,-4.3223,-4.3211,-4.3228,-4.3191,-4.3247,-4.3174,-4.3252,-4.3193,-4.3212,-4.321,-4.3214,-4.3219,-4.3138,-4.3266,-4.3474,-4.3496,-4.3223,-4.322,-4.3218,0,-4.3111,-4.3166,-4.3236,-4.3245,-4.3245,-4.3279,-4.3281,-4.3285,-4.3306,-4.3327,-4.334,-4.3368,-4.3384,-4.3406,-4.3378,-4.3327,-4.3461,-4.3385,-4.3455,-4.3456,-4.3486,-4.3485,-4.3702,-4.3496,-4.3496,-4.3495,-4.3495,0,-4.3271,-4.3337,-4.33,-4.3343,-4.3416,-4.3378,-4.3451,-4.3446,-4.3451,-4.3493,-4.3442,-4.3482,-4.3442,-4.3479,-4.3457,-4.3526,-4.3533,-4.3526,-4.352,-4.3532,-4.3533,-4.3544,-4.3535,-4.3501,-4.3499,-4.3498,-4.3497,0,-4.344,-4.3418,-4.349,-4.3485,-4.3486,-4.354,-4.3536,-4.3576,-4.3562,-4.3615,-4.3625,-4.3604,-4.3644,-4.3618,-4.3659,-4.3644,-4.3735,-4.3715,-4.3733,-4.3728,-4.38,-4.3795,-4.4033,-4.4064,-4.3837,-4.3839,-4.3841,0,-4.3545,-4.3595,-4.3596,-4.3621,-4.3626,-4.3666,-4.3687,-4.3652,-4.3676,-4.3691,-4.373,-4.3766,-4.3794,-4.3862,-4.385,-4.3881,-4.3862,-4.3944,-4.3867,-4.3878,-4.3866,-4.3864,-4.387,-4.396,-4.3963,-4.3965,-4.3966,0,-4.3734,-4.3721,-4.3753,-4.3783,-4.3809,-4.383,-4.3847,-4.387,-4.3836,-4.3865,-4.3907,-4.3929,-4.3971,-4.4009,-4.4036,-4.4037,-4.3997,-4.3991,-4.4009,-4.4022,-4.4032,-4.403,-4.3778,-4.3986,-4.3984,-4.3982,-4.3981,-4.3981,-4.3875,-4.3918,-4.3926,-4.3964,-4.3974,-4.3991,-4.403,-4.4021,-4.4056,-4.4088,-4.4065,-4.4115,-4.4124,-4.4156,-4.4164,-4.4203,-4.417,-4.4195,-4.4202,-4.421,-4.4221,-4.4025,-4.4207,-4.4206,-4.4206,-4.4205,-4.4205,0,-4.4063,-4.4066,-4.4102,-4.4128,-4.4159,-4.4118,-4.4136,-4.4164,-4.4209,-4.4221,-4.425,-4.4299,-4.4336,-4.4327,-4.4361,-4.4394,-4.4376,-4.4404,-4.4402,-4.4403,-4.4247,-4.4229,-4.4418,-4.4418,-4.4418,-4.4417,-4.4417,-4.4417,-4.4164,-4.4235,-4.4224,-4.4299,-4.4301,-4.435,-4.4364,-4.4381,-4.439,-4.4448,-4.4478,-4.4473,-4.4477,-4.4511,-4.4543,-4.454,-4.4555,-4.459,-4.4581,-4.4435,-4.4414,-4.4394,-4.4377,-4.4593,-4.4594,-4.4734,-4.4735,-4.4736]},{"header":{"parameterUnit":"m.s-1","parameterCategory":1,"la1":30.2991,"la2":30.254,"lo1":-89.0895,"lo2":-89.0444,"dy":0.0017,"dx":0.0017,"nx":28,"ny":28,"refTime":"2023-10-21T09:00:00:Z","depth":0,"parameterNumber":3,"parameterNumberName":"V-component_of_WINDS"},"data":[0,0,0,0,0,0,0,0,0,0,0,0,0,0,0,0,0,0,0,0,0,0,0,0,0,0,0,0,0,0,0,0,0,0,0,0,0,0,0,0,0,0,0,0,0,0,0,0,0,0,0,0,0,0,0,0,0,0,-0.7335,-0.7336,0,-0.7373,-0.7373,-0.7374,-0.7358,-0.7358,-0.7357,-0.7356,-0.7396,-0.7397,-0.7399,0,0,0,0,0,0,0,0,0,0,0,0,0,-0.7249,-0.7251,-0.7335,-0.7336,-0.7336,-0.7373,-0.7373,-0.7374,-0.7359,-0.7357,-0.7356,-0.7355,-0.7395,-0.7397,-0.7399,0,0,0,0,0,0,0,0,0,0,0,0,0,-0.7287,-0.7251,-0.7335,-0.7333,-0.7333,-0.7373,-0.7374,-0.7374,-0.7359,-0.7357,-0.7356,-0.7355,-0.7394,-0.7397,-0.74,-0.7444,0,0,-0.7408,-0.741,0,0,0,0,0,0,0,0,-0.7285,-0.729,-0.7333,-0.7333,-0.7333,-0.736,-0.7358,-0.7398,-0.7359,-0.7349,-0.7356,-0.7354,-0.7385,-0.7388,-0.7398,-0.7446,-0.7448,-0.7409,-0.741,-0.7412,-0.7412,0,0,0,0,0,0,0,-0.7282,-0.7288,-0.735,-0.7333,-0.7334,-0.733,-0.7334,-0.7365,-0.7374,-0.735,-0.7349,-0.7353,-0.7385,-0.7396,-0.7399,-0.7449,-0.7409,-0.7411,-0.7413,-0.7414,-0.7534,-0.7535,0,0,0,0,0,0,-0.7279,-0.7286,-0.7349,-0.7351,-0.7305,-0.7332,-0.7337,-0.7353,-0.7374,-0.7376,-0.7355,-0.7353,-0.7391,-0.7396,-0.7401,-0.7454,-0.7412,-0.7414,-0.7416,-0.7532,-0.7534,-0.7536,0,0,0,0,0,0,-0.7278,-0.7285,-0.7347,-0.7318,-0.7326,-0.7335,-0.7353,-0.7354,-0.7365,-0.7377,-0.7379,-0.7364,-0.7391,-0.7397,-0.7433,-0.7455,-0.7416,-0.7418,-0.7531,-0.7533,-0.7535,-0.7561,0,0,0,0,0,0,-0.7275,-0.7285,-0.7302,-0.7319,-0.7328,-0.738,-0.7355,-0.7356,-0.737,-0.7368,-0.7387,-0.7389,-0.739,-0.7429,-0.7436,-0.7458,-0.742,-0.7529,-0.7532,-0.7534,-0.7558,-0.7564,-0.7569,0,0,0,0,0,-0.7272,-0.7308,-0.7303,-0.731,-0.7349,-0.7381,-0.7386,-0.7387,-0.7372,-0.7389,-0.7396,-0.7388,-0.7451,-0.7433,-0.7441,-0.7464,-0.7527,-0.7531,-0.7534,-0.7556,-0.7563,-0.7569,0,0,0,0,0,0,-0.7294,-0.731,-0.7305,-0.7347,-0.7363,-0.7378,-0.7401,-0.7394,-0.7415,-0.7412,-0.7412,-0.7416,-0.7454,-0.7462,-0.7442,-0.7508,-0.7487,-0.7492,-0.7501,-0.7508,-0.7513,-0.751,-0.7423,0,0,0,0,0,-0.7304,-0.7328,-0.7341,-0.7377,-0.7385,-0.7391,-0.7405,-0.7404,-0.742,-0.7427,-0.7437,-0.7454,-0.7477,-0.7493,-0.7515,-0.7559,-0.7563,-0.7579,-0.7584,-0.7588,-0.7593,-0.7616,-0.7623,-0.7547,-0.7547,-0.7546,0,0,-0.7324,-0.7336,-0.7352,-0.7382,-0.7394,-0.7419,-0.7397,-0.7425,-0.7443,-0.7431,-0.7467,-0.7475,-0.7493,-0.7533,-0.7551,-0.7541,-0.7614,-0.7592,-0.7595,-0.7598,-0.762,-0.7627,-0.7634,-0.7549,-0.7548,-0.7548,0,0,-0.7375,-0.7386,-0.7417,-0.7429,-0.7447,-0.7451,-0.7458,-0.7474,-0.7479,-0.7514,-0.7506,-0.7527,-0.7568,-0.7581,-0.7593,-0.7646,-0.7639,-0.7653,-0.7681,-0.7703,-0.7709,-0.7715,-0.7734,-0.7741,-0.7657,-0.7658,-0.7658,0,-0.7398,-0.7436,-0.7434,-0.7462,-0.7476,-0.7465,-0.7496,-0.7508,-0.7533,-0.7542,-0.753,-0.758,-0.7591,-0.7634,-0.7647,-0.7657,-0.7665,-0.7652,-0.7709,-0.7714,-0.7719,-0.7737,-0.7744,-0.7659,-0.7659,-0.7659,-0.7659,0,-0.7463,-0.7489,-0.7512,-0.7536,-0.7551,-0.7581,-0.7584,-0.76,-0.7597,-0.7601,-0.7637,-0.765,-0.7674,-0.7684,-0.7682,-0.7727,-0.772,-0.7708,-0.7688,-0.7728,-0.7745,-0.7752,-0.7662,-0.7661,-0.7661,-0.766,0,0,-0.7531,-0.7551,-0.756,-0.757,-0.7588,-0.7608,-0.7636,-0.766,-0.7673,-0.769,-0.7714,-0.7748,-0.7737,-0.775,-0.7749,-0.7769,-0.781,-0.7755,-0.7755,-0.7765,-0.786,-0.7869,-0.7877,-0.7804,-0.7806,-0.7807,-0.7858,0,-0.7583,-0.7633,-0.7632,-0.7678,-0.7702,-0.7691,-0.7716,-0.7729,-0.7734,-0.7755,-0.776,-0.7784,-0.7767,-0.7775,-0.7794,-0.7801,-0.7829,-0.7797,-0.7827,-0.7828,-0.7824,-0.7886,-0.7896,-0.7944,-0.7865,-0.7866,-0.7867,0,-0.765,-0.7669,-0.7718,-0.7731,-0.7741,-0.7763,-0.7784,-0.7804,-0.7818,-0.782,-0.7835,-0.783,-0.7858,-0.7836,-0.7875,-0.7853,-0.7865,-0.787,-0.7872,-0.7876,-0.7851,-0.7892,-0.7959,-0.7967,-0.7877,-0.7877,-0.7876,0,-0.7695,-0.7731,-0.7765,-0.7774,-0.7791,-0.7807,-0.7814,-0.7828,-0.7841,-0.7859,-0.7868,-0.7889,-0.7901,-0.7917,-0.7918,-0.7901,-0.7957,-0.7935,-0.796,-0.796,-0.7974,-0.7973,-0.8045,-0.798,-0.798,-0.798,-0.798,0,-0.7754,-0.7784,-0.7785,-0.7806,-0.7839,-0.7837,-0.787,-0.7876,-0.7888,-0.791,-0.7901,-0.7922,-0.7921,-0.7942,-0.7943,-0.7975,-0.798,-0.7983,-0.7983,-0.7984,-0.7984,-0.7993,-0.799,-0.7982,-0.7981,-0.7981,-0.798,0,-0.7809,-0.7811,-0.7847,-0.786,-0.7863,-0.7887,-0.7898,-0.7918,-0.792,-0.7948,-0.7954,-0.7959,-0.7983,-0.7985,-0.8013,-0.8013,-0.8053,-0.8049,-0.8048,-0.8048,-0.8073,-0.807,-0.8153,-0.8164,-0.8092,-0.8092,-0.8093,0,-0.7847,-0.787,-0.7884,-0.7898,-0.7907,-0.7929,-0.7942,-0.794,-0.7955,-0.7972,-0.799,-0.8013,-0.8031,-0.807,-0.8076,-0.8097,-0.8094,-0.8121,-0.8097,-0.8097,-0.8095,-0.8094,-0.8096,-0.8126,-0.8127,-0.8128,-0.8128,0,-0.7914,-0.7914,-0.7933,-0.7953,-0.7969,-0.7985,-0.7999,-0.8011,-0.8011,-0.8027,-0.8051,-0.8065,-0.8093,-0.8116,-0.8136,-0.8144,-0.8136,-0.8136,-0.8143,-0.8145,-0.8143,-0.8145,-0.8062,-0.8134,-0.8134,-0.8133,-0.8133,-0.8133,-0.7963,-0.7982,-0.7995,-0.8017,-0.8027,-0.8041,-0.806,-0.8064,-0.8084,-0.8106,-0.8104,-0.813,-0.8143,-0.817,-0.8179,-0.8199,-0.819,-0.82,-0.8203,-0.8206,-0.8208,-0.8139,-0.8203,-0.8203,-0.8203,-0.8202,-0.8202,0,-0.8029,-0.8037,-0.8057,-0.8077,-0.8094,-0.8084,-0.8099,-0.8114,-0.8137,-0.815,-0.8168,-0.8195,-0.8216,-0.8224,-0.8245,-0.826,-0.8257,-0.8265,-0.8265,-0.8267,-0.8215,-0.8207,-0.8267,-0.8267,-0.8267,-0.8267,-0.8267,-0.8267,-0.8066,-0.8099,-0.8099,-0.8137,-0.8144,-0.8169,-0.8179,-0.8191,-0.8201,-0.8231,-0.8249,-0.8253,-0.8263,-0.8285,-0.8304,-0.8305,-0.8314,-0.8324,-0.8324,-0.8277,-0.827,-0.8264,-0.8257,-0.8326,-0.8326,-0.8374,-0.8374,-0.8375]}]]